Tracking 31023 objects as of 19-Jul-2025
HD Live streaming from Space Station
objects crossing your sky now

OBJECT E

Track OBJECT E now!
10-day predictions


NORAD ID: 61231
Int'l Code: 2024-173E
Perigee: 514.3 km
Apogee: 516.6 km
Inclination: 97.4 °
Period: 94.8 minutes
Semi major axis: 6886 km
RCS: Unknown
Launch date: September 24, 2024
Source: People's Republic of China (PRC)
Launch site: Yellow Sea Launch Area, China (YSLA)
Your satellite tracking list
Your tracking list is empty




NASA's NSSDC Master Catalog

Two Line Element Set (TLE):
1 61231U 24173E   25199.93830004  .00001778  00000-0  87779-4 0  9998
2 61231  97.4121 273.3730 0001656  88.9917 271.1507 15.19172123 45165
Source of the keplerian elements: AFSPC